Location: Wellington
(41.1689°N, 82.2179°W)
Time: 06:21:41
(UTC+00:00)

Daily predictions for brighter satellites

Satellite Brightness Start Highest point End
(mag) Time Altitude Azimuth Time Altitude Azimuth Time Altitude Azimuth
Cosmos 2221 Rocket 4.0 22:33:16 10° NNW 22:37:44 69° W 22:42:07 10° S
Cosmos 1812 3.9 22:43:28 10° ESE 22:44:52 13° E 22:46:16 10° ENE
Cosmos 1441 Rocket 3.0 22:42:31 10° NNW 22:45:52 78° W 22:49:13 10° S
SJ 16-02 3.3 22:45:28 10° ESE 22:46:15 10° E 22:47:02 10° E
Cosmos 2058 4.5 22:45:57 10° NE 22:48:00 14° ENE 22:50:03 10° ESE
Cosmos 1484 Rocket 4.2 22:44:47 10° S 22:48:04 39° W 22:51:24 10° NNW
OAO 2 Rocket 4.3 22:48:08 10° WSW 22:52:46 38° S 22:57:30 10° ESE
Tiangong 0.8 22:53:55 10° WSW 22:55:57 16° SSW 22:57:59 10° S
Cosmos 1869 3.5 22:52:42 10° SSE 22:55:59 37° E 22:59:15 10° NNE
ARIANE 5 R/B 2.4 22:52:27 10° SSE 22:57:23 70° ENE 23:02:22 10° N
DNEPR-1 R/B 3.9 22:53:02 10° NNW 22:57:38 88° SW 23:03:03 10° SSE
Cosmos 44 Rocket 3.9 22:54:29 10° S 22:58:47 36° ESE 23:03:04 11° NE
SMAP 3.1 22:56:19 10° SSE 23:00:58 87° WSW 23:05:39 10° NNW
Timation 2 Rocket 4.3 22:54:29 10° S 23:01:09 58° ESE 23:07:53 10° NNE
AQUARIUS 4.0 23:05:54 10° SSE 23:10:15 66° ENE 23:14:38 10° N
Cosmos 2061 Rocket 4.2 23:04:12 10° S 23:10:31 77° W 23:16:48 10° N
Cosmos 1782 Rocket 4.4 23:06:29 10° SSW 23:10:49 54° W 23:15:12 10° N
SL-4 R/B 3.8 23:09:41 10° WNW 23:12:39 27° SW 23:15:44 10° SSE
Landsat 7 3.7 23:09:20 10° SSE 23:13:58 90° WNW 23:18:39 10° NNW
Meteor 2-12 Rocket 4.4 23:12:21 10° N 23:18:26 67° E 23:24:27 10° SSE
SPOT 1/Viking Rocket 3.7 23:18:16 10° SE 23:23:12 49° ENE 23:28:12 10° N
ATLAS 2AS CENTAUR R/B 4.4 23:21:56 10° N 23:25:14 14° NNE 23:27:19 12° NE
Cosmos 407 Rocket 3.5 23:20:26 10° SSW 23:25:38 88° WNW 23:30:49 10° NNE
Geosat FO 3.9 23:23:25 10° SE 23:26:18 64° ENE 23:29:09 10° NNW
CZ-2D R/B 3.9 23:23:18 10° S 23:26:21 46° W 23:29:25 10° NNW
ISS -3.3 23:23:15 10° WSW 23:26:32 54° NNW 23:28:16 25° NE
SL-12 R/B(2) 4.3 23:20:37 10° SW 23:28:22 87° NW 23:37:51 10° NE
Cosmos 2082 Rocket 2.8 23:24:47 10° N 23:29:52 34° ENE 23:33:07 19° ESE
Cosmos 1943 Rocket 2.1 23:24:31 10° SSW 23:30:08 85° ESE 23:35:46 10° NNE
Cosmos 1464 Rocket 4.2 23:24:13 10° SSE 23:30:15 49° E 23:36:15 10° NNE
Cosmos 371 Rocket 4.2 23:26:31 10° SSE 23:30:28 26° E 23:31:10 25° E
Cosmos 2278 Rocket 2.1 23:24:52 10° SSW 23:30:31 82° ESE 23:36:12 10° NNE
OAO 3 Rocket 4.2 23:26:33 10° SW 23:30:45 34° S 23:33:15 20° ESE
Cosmos 2151 Rocket 3.9 23:26:58 10° SSE 23:31:09 41° E 23:35:05 12° NNE
Aureole 3 Rocket 2.0 23:28:57 10° S 23:32:04 77° E 23:34:33 14° NNE
Cosmos 1975 Rocket 3.7 23:28:39 10° NNW 23:32:55 58° W 23:37:13 10° S
ATLAS 5 CENTAUR R/B 2.3 23:31:29 10° NW 23:36:06 68° WSW 23:41:50 10° SSE
Cosmos 304 Rocket 4.5 23:32:26 10° SSE 23:36:34 31° E 23:37:16 29° E
CZ-4 R/B 4.2 23:33:22 10° SSE 23:37:19 76° ENE 23:41:18 10° N
Sich 1 Rocket 4.2 23:35:29 10° SSE 23:39:31 33° E 23:40:00 32° ENE
COSMO-SKYMED 1 2.4 23:36:04 14° NNE 23:39:34 57° E 23:43:36 10° S
MOS 1 Rocket 3.1 23:35:55 10° S 23:40:10 81° WSW 23:44:36 10° NNW
USA 215 3.7 23:35:09 10° SSE 23:41:36 62° SW 23:48:05 10° NW
Spot 4 Rocket 3.9 23:37:05 10° SSE 23:42:06 62° ENE 23:47:08 10° N
Cosmos 2034 Rocket 4.3 23:36:36 10° SSE 23:42:16 40° E 23:48:00 10° NNE
SKYMED 2 3.5 23:39:31 10° NNE 23:43:53 86° W 23:48:13 10° SSW
Helios 1A Rocket 2.2 23:43:03 33° NNE 23:44:25 71° ESE 23:47:47 10° S
Timation 1 Rocket 4.2 23:39:03 10° NNW 23:45:02 72° ENE 23:50:58 10° SSE
Okean 1 Rocket 3.5 23:42:33 10° SSE 23:46:31 38° E 23:46:31 38° E
RESURS DK-1 2.1 23:51:04 10° NNW 23:55:06 85° ENE 23:57:10 27° SSE
